{"data":{"norad_id":53261,"epoch":"2026-05-25T04:14:03.690240Z","epoch_age_seconds":66583,"freshness":"FRESH","line1":"1 53261U 22086V   26145.17643160 -.00000239  00000+0  30637-5 0  9999","line2":"2 53261  53.2142 210.7590 0001021  85.6514 274.4595 15.08834441212619","mean_motion":15.08834441,"eccentricity":0.0001021,"inclination_deg":53.2142,"raan_deg":210.759,"arg_perigee_deg":85.6514,"mean_anomaly_deg":274.4595,"bstar":3.0637e-6,"rev_number":21261,"period_min":95.437906298429,"perigee_km":539.05406333279,"apogee_km":540.46669797793,"semimajor_km":6917.8973806554,"source":"CELESTRAK","updated_at":"2026-05-25T13:38:17.363917Z"}}